INMARSAT 3-F5
1 25153U 98006B   03017.05055557  .00000158  00000-0  10000-3 0  8337
2 25153   0.4459 357.4673 0003810 313.0559 208.7476  1.00276883 18179
HOT BIRD 4
1 25237U 98013A   03013.80550721  .00000107  00000-0  10000-3 0  3250
2 25237   0.0242 116.4838 0007929 193.6371 105.7449  1.00276095 18185
NOAA 15
1 25338U 98030A   03019.95155962  .00000300  00000-0  14851-3 0  9744
2 25338  98.5510  42.9042 0011279  46.2358 313.9754 14.24231153243580
RESURS O1-N4
1 25394U 98043A   03019.55999249  .00000220  00000-0  11499-3 0  4279
2 25394  98.6368  98.0362 0001448 160.6619 199.4616 14.23866401235268
TMSAT
1 25396U 98043C   03019.24134977 -.00000043  00000-0  00000+0 0  8153
2 25396  98.6325  96.9354 0002538 197.4850 162.6242 14.23500697235211
TECHSAT 1B
1 25397U 98043D   03015.94654005 +.00000110 +00000-0 +68115-4 0 01340
2 25397 098.6280 092.6275 0000515 208.9633 151.1516 14.22951279234713
ASTRA 2A
1 25462U 98050A   03013.00000000  .00000169  00000-0  00000+0 0  5281
2 25462   0.0385 308.7109 0004824 280.8620 270.7162  1.00272094 16073
EUTELSAT W2
1 25491U 98056A   03015.86810854  .00000123  00000-0  00000+0 0  5641
2 25491   0.0572 107.9262 0003740 184.8614 150.6403  1.00275257 15712
HOT BIRD 5
1 25495U 98057A   03015.13542825  .00000175  00000-0  00000+0 0  4923
2 25495   0.0349 198.9702 0009463  93.1649 263.9846  1.00277875 15677
SEDSAT 1
1 25509U 98061B   03019.22912195  .00001551  00000-0  30292-3 0  7606
2 25509  31.4323 324.4955 0357285  37.9392 324.5930 14.27383876220979
PAN SAT
1 25520U 98064B   03020.22160691  .00003372  00000-0  17200-3 0  6314
2 25520  28.4567  59.2759 0006279  35.6155 324.4854 15.13730410233131
ISS (ZARYA)
1 25544U 98067A   03020.50294694  .00029542  00000-0  37098-3 0  6049
2 25544  51.6374  42.1021 0005808  57.7238  77.9878 15.59435662237960
ORSTED
1 25635U 99008B   03019.54099580  .00001049  00000-0  27217-3 0  8108
2 25635  96.4477  12.9675 0146846  64.4484 297.1811 14.44780802205609
SUNSAT
1 25636U 99008C   03017.88818205  .00000509  00000-0  14031-3 0  6576
2 25636  96.4513  10.4338 0150726  75.9281 285.8610 14.42922471205243
UOSAT 12
1 25693U 99021A   03020.49086902  .00000534  00000-0  96340-4 0  6286
2 25693  64.5611  99.7845 0017704 317.5925  42.3803 14.76355030201965
FENGYUN 1C
1 25730U 99025A   03019.53139867  .00000096  00000-0  75729-4 0  7466
2 25730  98.6360  45.0592 0015390  88.6455 271.6486 14.11731064190394
ASTRA 1H
1 25785U 99033A   03013.00000000  .00000139  00000-0  10000-3 0  3685
2 25785   0.0122 319.8851 0002995  65.1991 106.1621  1.00273184 13136
TERRA
1 25994U 99068A   03020.26559145  .00000597  00000-0  14249-3 0  6196
2 25994  98.2051  96.9330 0001043  82.4400 277.6907 14.57097117164407
JAWSAT
1 26061U 00004A   03020.56084044  .00000801  00000-0  28375-3 0  7451
2 26061 100.2114  72.2392 0035227   2.2339 357.8995 14.37791279156366
OPAL
1 26063U 00004C   03020.55960523  .00000253  00000-0  10759-3 0  7028
2 26063 100.2164  69.8700 0037370   8.8519 351.3317 14.35469251156223
ASUSAT
1 26065U 00004E   03019.54122589  .00000291  00000-0  12090-3 0  7122
2 26065 100.2164  68.8090 0037553  13.1434 347.0716 14.35495036156072
GOES 11
1 26352U 00022A   03018.56756318 -.00000027  00000-0  10000-3 0  9821
2 26352   0.0683 110.1744 0004467 166.8282 292.3764  1.00262168  9928
EUTELSAT W4
1 26369U 00028A   03019.74438112  .00000164  00000-0  00000+0 0  3410
2 26369   0.0502  35.6656 0006941 257.0242 130.0516  1.00272366  9752
FENGYUN 2B
1 26382U 00032A   03018.64433007 -.00000315  00000-0  00000+0 0  7712
2 26382   0.6411 287.1631 0000463 150.6795  16.0863  1.00263877  9400
EUTELSAT W1
1 26487U 00052A   03019.89353010  .00000077  00000-0  10000-3 0  3459
2 26487   0.0166  80.1752 0003955 205.6248 164.6935  1.00272665  8724
ASTRA 2B
1 26494U 00054A   03013.00000000  .00000169  00000-0  00000+0 0  2517
2 26494   0.0178 354.5658 0005000 302.8402 202.8287  1.00276704  8557
NOAA 16
1 26536U 00055A   03019.95985754  .00000301  00000-0  18869-3 0  1729
2 26536  98.8990 328.4682 0011039  33.7527 326.4312 14.11887676119978
SAUDISAT 1A
1 26545U 00057A   03019.86079131  .00001794  00000-0  25629-3 0  4007
2 26545  64.5587 123.2247 0054002 243.5242 116.0339 14.78897968124820
UNISAT
1 26547U 00057C   03019.45651085  .00003220  00000-0  43408-3 0  4199
2 26547  64.5573 126.8153 0061101 246.0559 113.4083 14.79607983124733
TIUNGSAT 1
1 26548U 00057D   03018.71367124  .00002531  00000-0  33692-3 0  4037
2 26548  64.5576 119.9811 0047211 242.9526 116.6735 14.81159613124796
SAUDISAT 1B
1 26549U 00057E   03020.34923777  .00002036  00000-0  29420-3 0  6702
2 26549  64.5496 125.6847 0058415 243.6180 115.8907 14.77841897124826
AMSAT OSCAR 40
1 26609U 00072B   03018.40123252 -.00000010  00000-0  10000-3 0  3050
2 26609   7.9708  69.8773 7935358 134.4243 325.7472  1.25596623 10197
GOES 12
1 26871U 01031A   03017.22389260 -.00000074  00000-0  10000-3 0  7761
2 26871   0.4716  97.7371 0000777  39.9403 313.9601  1.00278668  5519
STARSHINE 3
1 26929U 01043A   03020.67712757  .06621087  62575-5  60885-3 0  7115
2 26929  67.0106  59.7055 0005930 304.3423 172.9955 16.38467802 74258
PCSAT
1 26931U 01043C   03020.20165909  .00000405  00000-0  19208-3 0  3813
2 26931  67.0477 331.2154 0005293 258.2923 101.7584 14.29099685 68152
SAPPHIRE
1 26932U 01043D   03019.55363370  .00000282  00000-0  14300-3 0  3756
2 26932  67.0584 332.5935 0005934 242.5381 117.5116 14.29283260 68081
ENVISAT
1 27386U 02009A   03020.41334963 -.00000815  00000-0 -28607-3 0  8626
2 27386  98.5492  89.3857 0000829  82.6519 277.4760 14.32238979 46578
IDEFIX/ARIANE 42P
1 27422U 02021B   03019.54248839  .00000370  00000-0  16718-3 0  2122
2 27422  98.6998  98.8771 0011923 235.0908 124.9153 14.27953335 37176
NOAA 17
1 27453U 02032A   03019.89917139  .00000358  00000-0  17770-3 0  2734
2 27453  98.7613  91.2584 0012640  83.6928 276.5687 14.23275059 29746
HOT BIRD 6
1 27499U 02038A   03013.80550721  .00000106  00000-0  10000-3 0   665
2 27499   0.0928  32.8693 0008090 290.3889  92.5421  1.00271722  1476
RUBIN 2
1 27605U 02058A   03020.21817919  .00001034  00000-0  18692-3 0   345
2 27605  64.5528 286.3633 0030466 122.9506 237.4526 14.71385883  4491
STS-107
1 27647U 03003A   03020.58333333  .00054970  66098-5  11482-3 0   188
2 27647  39.0142 202.9932 0011031  25.0418 332.9930 15.98413253   628
